�������l�o���
Date,Time,MP-1(��Sv/h),MP-2(��Sv/h),MP-3(��Sv/h),MP-4(��Sv/h),MP-5(��Sv/h),MP-6(��Sv/h),MP-7(��Sv/h),MP-8(��Sv/h),����,����(m/s),���J
2022/06/28,00:00,0.580,0.843,0.536,1.019,0.723,0.342,0.594,0.562,�k�k��,1.2,��
2022/06/28,00:10,0.580,0.844,0.536,1.021,0.723,0.343,0.594,0.561,�k��,2.0,��
2022/06/28,00:20,0.578,0.844,0.535,1.022,0.723,0.342,0.596,0.560,-,CALM,��
2022/06/28,00:30,0.582,0.843,0.535,1.021,0.722,0.342,0.594,0.561,���k��,2.0,��
2022/06/28,00:40,0.579,0.843,0.537,1.019,0.722,0.342,0.596,0.562,���k��,2.8,��
2022/06/28,00:50,0.581,0.844,0.537,1.022,0.723,0.341,0.601,0.562,�k��,2.3,��
2022/06/28,01:00,0.580,0.845,0.537,1.023,0.723,0.343,0.597,0.561,�k,0.6,��
2022/06/28,01:10,0.579,0.845,0.536,1.020,0.724,0.344,0.596,0.562,-,CALM,��
2022/06/28,01:20,0.581,0.844,0.537,1.021,0.723,0.342,0.595,0.562,���k��,2.3,��
2022/06/28,01:30,0.580,0.844,0.536,1.018,0.723,0.341,0.596,0.561,���k��,2.8,��
2022/06/28,01:40,0.581,0.844,0.537,1.021,0.722,0.341,0.597,0.562,�k��,6.0,��
2022/06/28,01:50,0.579,0.844,0.536,1.021,0.725,0.343,0.595,0.562,�k��,5.1,��
2022/06/28,02:00,0.581,0.843,0.538,1.020,0.723,0.342,0.596,0.561,���k��,6.3,��
2022/06/28,02:10,0.581,0.843,0.537,1.019,0.723,0.343,0.595,0.562,���k��,8.4,��
2022/06/28,02:20,0.580,0.845,0.535,1.019,0.722,0.342,0.596,0.562,���k��,7.3,��
2022/06/28,02:30,0.579,0.842,0.537,1.020,0.723,0.343,0.596,0.561,���k��,7.6,��
2022/06/28,02:40,0.580,0.843,0.536,1.019,0.726,0.342,0.594,0.562,���k��,7.7,��
2022/06/28,02:50,0.580,0.842,0.536,1.021,0.722,0.343,0.595,0.560,���k��,7.6,��
2022/06/28,03:00,0.580,0.842,0.535,1.020,0.723,0.342,0.597,0.563,�k��,7.0,�L
2022/06/28,03:10,0.582,0.843,0.537,1.021,0.723,0.342,0.596,0.561,�k��,6.5,��
2022/06/28,03:20,0.581,0.843,0.536,1.020,0.723,0.342,0.595,0.563,�k��,5.7,��
2022/06/28,03:30,0.581,0.843,0.536,1.018,0.724,0.343,0.595,0.562,�k��,6.5,��
2022/06/28,03:40,0.580,0.844,0.539,1.021,0.724,0.343,0.595,0.560,���k��,6.0,��
2022/06/28,03:50,0.580,0.846,0.537,1.021,0.722,0.342,0.597,0.563,�k�k��,2.6,�L
2022/06/28,04:00,0.581,0.847,0.537,1.022,0.724,0.342,0.595,0.561,�k�k��,1.7,��
2022/06/28,04:10,0.581,0.843,0.537,1.022,0.725,0.342,0.597,0.563,�k��,3.0,��
2022/06/28,04:20,0.580,0.845,0.537,1.021,0.723,0.342,0.595,0.561,�k��,2.2,��
2022/06/28,04:30,0.580,0.846,0.538,1.021,0.723,0.343,0.595,0.563,���k��,2.2,��
2022/06/28,04:40,0.580,0.844,0.537,1.022,0.725,0.343,0.596,0.562,�k��,2.2,��
2022/06/28,04:50,0.580,0.845,0.538,1.021,0.723,0.344,0.596,0.562,���k��,1.2,��
2022/06/28,05:00,0.580,0.845,0.538,1.022,0.724,0.343,0.597,0.560,-,CALM,��
2022/06/28,05:10,0.580,0.845,0.536,1.021,0.722,0.343,0.594,0.561,��쓌,1.5,��
2022/06/28,05:20,0.580,0.845,0.536,1.023,0.724,0.343,0.595,0.562,�쓌,2.0,��
2022/06/28,05:30,0.579,0.845,0.537,1.023,0.724,0.342,0.596,0.561,�쓌,2.6,��
2022/06/28,05:40,0.580,0.843,0.539,1.022,0.723,0.344,0.597,0.562,��쓌,3.0,��
2022/06/28,05:50,0.579,0.845,0.537,1.019,0.724,0.341,0.594,0.561,��쓌,1.2,��
2022/06/28,06:00,0.581,0.845,0.537,1.022,0.720,0.341,0.595,0.561,��,1.9,��
2022/06/28,06:10,0.579,0.845,0.537,1.022,0.724,0.342,0.595,0.561,��,1.2,�L
2022/06/28,06:20,0.579,0.844,0.537,1.020,0.724,0.343,0.596,0.561,�쓌,0.6,�L
2022/06/28,06:30,0.580,0.844,0.537,1.021,0.724,0.343,0.595,0.562,���쓌,1.1,�L
2022/06/28,06:40,0.581,0.844,0.539,1.020,0.725,0.343,0.595,0.561,�쓌,1.4,�L
2022/06/28,06:50,0.581,0.844,0.537,1.024,0.723,0.341,0.595,0.562,�쓌,1.7,��
2022/06/28,07:00,0.579,0.844,0.539,1.022,0.725,0.343,0.595,0.562,�쓌,0.6,�L
2022/06/28,07:10,0.581,0.846,0.537,1.021,0.725,0.342,0.596,0.562,��,0.6,�L
2022/06/28,07:20,0.582,0.846,0.538,1.020,0.723,0.343,0.595,0.562,��,0.8,�L
2022/06/28,07:30,0.581,0.845,0.537,1.022,0.724,0.344,0.596,0.561,-,CALM,��
2022/06/28,07:40,0.581,0.844,0.537,1.022,0.725,0.344,0.596,0.561,�쐼,0.8,�L
2022/06/28,07:50,0.580,0.843,0.539,1.020,0.724,0.343,0.595,0.562,��쓌,1.1,��
2022/06/28,08:00,0.580,0.844,0.539,1.022,0.723,0.342,0.597,0.562,��쓌,2.0,��
2022/06/28,08:10,0.581,0.845,0.538,1.021,0.726,0.343,0.596,0.562,��,2.6,��
2022/06/28,08:20,0.582,0.844,0.538,1.022,0.724,0.342,0.598,0.563,��,2.6,��
2022/06/28,08:30,0.582,0.838,0.538,1.021,0.724,0.344,0.596,0.562,��쐼,3.6,��
2022/06/28,08:40,0.583,0.845,0.539,1.020,0.726,0.344,0.596,0.561,��쐼,4.5,��
2022/06/28,08:50,0.582,0.844,0.537,1.023,0.725,0.343,0.595,0.560,��쐼,3.3,��
2022/06/28,09:00,0.584,0.845,0.539,1.024,0.724,0.343,0.595,0.561,�쐼,2.3,��
2022/06/28,09:10,0.583,0.846,0.538,1.021,0.725,0.342,0.597,0.559,��쐼,2.9,��
2022/06/28,09:20,0.584,0.846,0.538,1.023,0.726,0.343,0.596,0.560,��쐼,3.8,��
2022/06/28,09:30,0.585,0.844,0.539,1.023,0.727,0.341,0.596,0.559,��,3.9,��
2022/06/28,09:40,0.583,0.844,0.540,1.023,0.727,0.343,0.597,0.560,��,3.8,��
2022/06/28,09:50,0.583,0.845,0.539,1.023,0.726,0.341,0.595,0.561,��,4.5,��
2022/06/28,10:00,0.584,0.837,0.540,1.023,0.727,0.340,0.594,0.559,��,4.3,��
2022/06/28,10:10,0.584,0.834,0.537,1.022,0.727,0.341,0.596,0.560,��,4.7,�L
2022/06/28,10:20,0.583,0.843,0.538,1.022,0.726,0.343,0.595,0.560,��,3.4,��
2022/06/28,10:30,0.581,0.844,0.538,1.023,0.724,0.342,0.597,0.560,��,2.9,��
2022/06/28,10:40,0.583,0.842,0.539,1.021,0.725,0.341,0.595,0.561,��,3.4,��
2022/06/28,10:50,0.584,0.840,0.540,1.022,0.727,0.340,0.597,0.562,��,3.3,��
2022/06/28,11:00,0.584,0.840,0.538,1.024,0.726,0.341,0.596,0.562,��,3.4,��
2022/06/28,11:10,0.584,0.844,0.541,1.023,0.724,0.342,0.597,0.560,��,3.1,��
2022/06/28,11:20,0.586,0.841,0.540,1.022,0.728,0.343,0.596,0.561,��,3.3,��
2022/06/28,11:30,0.584,0.839,0.538,1.021,0.725,0.345,0.594,0.561,��,4.1,��
2022/06/28,11:40,0.586,0.837,0.538,1.023,0.728,0.342,0.595,0.561,��,5.4,��
2022/06/28,11:50,0.585,0.842,0.538,1.023,0.728,0.345,0.595,0.559,��,5.7,��
2022/06/28,12:00,0.586,0.844,0.541,1.023,0.726,0.345,0.595,0.559,��,5.3,��
2022/06/28,12:10,0.585,0.848,0.539,1.026,0.726,0.344,0.595,0.561,��,5.6,��
2022/06/28,12:20,0.586,0.850,0.540,1.025,0.726,0.344,0.596,0.562,��,5.2,��
2022/06/28,12:30,0.586,0.849,0.541,1.024,0.726,0.344,0.599,0.562,��,5.1,��
2022/06/28,12:40,0.587,0.849,0.541,1.023,0.727,0.345,0.596,0.563,��,5.1,��
2022/06/28,12:50,0.585,0.849,0.541,1.023,0.726,0.344,0.597,0.561,��,5.5,��
2022/06/28,13:00,0.586,0.849,0.540,1.024,0.727,0.344,0.598,0.561,��,6.9,��
2022/06/28,13:10,0.587,0.848,0.541,1.023,0.728,0.345,0.597,0.560,��,7.6,��
2022/06/28,13:20,0.586,0.848,0.541,1.023,0.729,0.345,0.597,0.561,��,8.1,��
2022/06/28,13:30,0.586,0.847,0.541,1.023,0.727,0.344,0.599,0.561,��,7.5,��
2022/06/28,13:40,0.586,0.848,0.539,1.022,0.726,0.344,0.599,0.561,��,7.8,��
2022/06/28,13:50,0.585,0.849,0.539,1.025,0.728,0.344,0.599,0.560,��,7.5,��
2022/06/28,14:00,0.586,0.845,0.539,1.025,0.726,0.345,0.597,0.562,��,8.6,��
2022/06/28,14:10,0.585,0.848,0.540,1.027,0.729,0.345,0.598,0.563,��,8.3,�L
2022/06/28,14:20,0.588,0.846,0.540,1.025,0.727,0.345,0.598,0.563,��,8.2,��
2022/06/28,14:30,0.587,0.848,0.540,1.024,0.729,0.342,0.599,0.563,��,8.8,�L
2022/06/28,14:40,0.587,0.847,0.540,1.024,0.728,0.345,0.599,0.563,��,7.9,�L
2022/06/28,14:50,0.588,0.850,0.541,1.025,0.724,0.343,0.600,0.563,��,8.5,�L
2022/06/28,15:00,0.588,0.851,0.542,1.023,0.720,0.344,0.600,0.563,��,8.0,��
2022/06/28,15:10,0.587,0.850,0.542,1.025,0.726,0.347,0.601,0.562,��,8.2,��
2022/06/28,15:20,0.588,0.853,0.543,1.024,0.729,0.346,0.598,0.562,��,10.2,��
2022/06/28,15:30,0.588,0.852,0.543,1.025,0.731,0.346,0.598,0.563,��,9.2,��
2022/06/28,15:40,0.587,0.850,0.543,1.026,0.731,0.347,0.597,0.563,��,7.8,��
2022/06/28,15:50,0.587,0.851,0.543,1.025,0.729,0.345,0.598,0.561,��,9.1,��
2022/06/28,16:00,0.586,0.849,0.541,1.024,0.728,0.346,0.598,0.560,��,8.7,��
2022/06/28,16:10,0.586,0.850,0.539,1.025,0.729,0.345,0.599,0.562,��,8.7,��
2022/06/28,16:20,0.586,0.853,0.541,1.027,0.730,0.344,0.597,0.561,��,8.7,��
2022/06/28,16:30,0.586,0.852,0.540,1.026,0.730,0.345,0.597,0.562,��,8.5,��
2022/06/28,16:40,0.586,0.853,0.540,1.023,0.732,0.345,0.598,0.562,��,9.0,��
2022/06/28,16:50,0.586,0.852,0.542,1.026,0.731,0.345,0.598,0.562,��,8.5,��
2022/06/28,17:00,0.588,0.853,0.542,1.024,0.731,0.344,0.597,0.559,��,8.5,��
2022/06/28,17:10,0.589,0.854,0.543,1.028,0.732,0.345,0.596,0.561,��,9.4,��
2022/06/28,17:20,0.587,0.851,0.542,1.027,0.732,0.345,0.597,0.560,��,9.3,��
2022/06/28,17:30,0.586,0.852,0.540,1.029,0.730,0.345,0.596,0.563,��,9.3,��
2022/06/28,17:40,0.585,0.852,0.541,1.030,0.728,0.345,0.596,0.562,��,10.2,��
2022/06/28,17:50,0.585,0.853,0.540,1.028,0.730,0.346,0.596,0.560,��,8.8,��
2022/06/28,18:00,0.585,0.851,0.541,1.028,0.729,0.345,0.598,0.562,��,8.5,��
2022/06/28,18:10,0.587,0.852,0.540,1.028,0.731,0.343,0.596,0.563,��,8.0,��
2022/06/28,18:20,0.586,0.853,0.540,1.028,0.729,0.344,0.596,0.563,��,8.0,��
2022/06/28,18:30,0.586,0.852,0.541,1.026,0.730,0.344,0.596,0.564,��,8.1,��
2022/06/28,18:40,0.587,0.853,0.540,1.028,0.730,0.345,0.596,0.562,��,7.8,��
2022/06/28,18:50,0.587,0.851,0.541,1.027,0.730,0.344,0.596,0.563,��,6.9,��
2022/06/28,19:00,0.586,0.852,0.541,1.028,0.730,0.344,0.596,0.562,��,7.3,��
2022/06/28,19:10,0.587,0.852,0.541,1.027,0.730,0.345,0.596,0.563,��,6.0,��
2022/06/28,19:20,0.585,0.851,0.540,1.026,0.732,0.346,0.596,0.562,��,6.2,��
2022/06/28,19:30,0.585,0.853,0.541,1.027,0.731,0.345,0.595,0.563,��,6.3,��
2022/06/28,19:40,0.587,0.855,0.543,1.029,0.732,0.346,0.598,0.563,��,5.9,��
2022/06/28,19:50,0.587,0.855,0.542,1.030,0.731,0.345,0.597,0.563,��,6.1,��
2022/06/28,20:00,0.586,0.853,0.543,1.028,0.731,0.347,0.596,0.564,��,6.8,��
2022/06/28,20:10,0.585,0.854,0.542,1.029,0.731,0.345,0.596,0.564,��,7.8,��
2022/06/28,20:20,0.588,0.855,0.544,1.028,0.731,0.346,0.597,0.564,��,7.9,��
2022/06/28,20:30,0.586,0.855,0.543,1.028,0.731,0.345,0.597,0.563,��,7.4,��
2022/06/28,20:40,0.587,0.854,0.542,1.029,0.732,0.344,0.599,0.563,��,7.0,��
2022/06/28,20:50,0.587,0.853,0.544,1.029,0.730,0.346,0.600,0.564,��,7.1,��
2022/06/28,21:00,0.587,0.856,0.542,1.030,0.732,0.346,0.597,0.563,��,7.0,��
2022/06/28,21:10,0.586,0.854,0.542,1.031,0.733,0.346,0.596,0.563,��,6.7,��
2022/06/28,21:20,0.587,0.853,0.542,1.031,0.733,0.345,0.598,0.565,��쐼,6.6,��
2022/06/28,21:30,0.588,0.852,0.544,1.031,0.732,0.347,0.599,0.563,��쐼,6.0,��
2022/06/28,21:40,0.586,0.856,0.542,1.030,0.733,0.345,0.599,0.562,��쐼,5.3,��
2022/06/28,21:50,0.587,0.854,0.542,1.032,0.734,0.346,0.598,0.563,��,4.5,��
2022/06/28,22:00,0.588,0.855,0.543,1.030,0.731,0.346,0.596,0.563,��,5.0,��
2022/06/28,22:10,0.586,0.853,0.544,1.029,0.732,0.346,0.598,0.563,��쐼,5.0,��
2022/06/28,22:20,0.586,0.857,0.543,1.031,0.731,0.347,0.598,0.563,��쐼,3.9,��
2022/06/28,22:30,0.586,0.855,0.543,1.030,0.732,0.345,0.598,0.564,��,2.5,��
2022/06/28,22:40,0.588,0.855,0.542,1.030,0.734,0.347,0.597,0.563,��쐼,3.3,��
2022/06/28,22:50,0.587,0.856,0.543,1.029,0.732,0.346,0.597,0.563,��쐼,4.2,��
2022/06/28,23:00,0.586,0.855,0.542,1.032,0.733,0.346,0.598,0.561,�쐼,4.5,��
2022/06/28,23:10,0.587,0.854,0.543,1.030,0.734,0.346,0.598,0.566,�쐼,4.2,��
2022/06/28,23:20,0.588,0.856,0.543,1.031,0.734,0.346,0.597,0.566,�쐼,3.5,��
2022/06/28,23:30,0.587,0.854,0.543,1.030,0.733,0.345,0.598,0.563,��쐼,2.8,��
2022/06/28,23:40,0.587,0.857,0.545,1.031,0.733,0.347,0.599,0.564,�쐼,2.2,��
2022/06/28,23:50,0.588,0.855,0.544,1.030,0.731,0.345,0.599,0.564,�쐼,1.7,��
